Tracking 25963 objects as of 13-Aug-2022
HD Live streaming from Space Station
objects crossing your sky now

THOR ABLESTAR DEB

Track THOR ABLESTAR DEB now!
10-day predictions


NORAD ID: 121
Int'l Code: 1961-015F
Perigee: 828.5 km
Apogee: 975.0 km
Inclination: 66.7 °
Period: 102.9 minutes
Semi major axis: 7272 km
RCS: 0.26 m2 (medium)
Launch date: June 29, 1961
Source: United States (US)
Launch site: AIR FORCE EASTERN TEST RANGE (AFETR)

Note: This is SATELLITE DEBRIS
aabbcc
Your satellite tracking list
Your tracking list is empty




NASA's NSSDC Master Catalog

Two Line Element Set (TLE):
1 00121U 61015F   22224.82285985  .00000000  00000-0  52079-4 0  9993
2 00121  66.7476 291.1784 0100709 266.0070  92.9496 13.99754697129788
Source of the keplerian elements: AFSPC